Marshalltown, IA

5:36 PM CDT on July 29, 2016 (GMT -0500)
Marshalltown Municipal

Weather History for KMIW - June, 2012

Change the Weather History Date:

Friday, June 1, 2012

  Actual Average Record
Temperature  
Mean Temperature 56 °F 66 °F  
Max Temperature 68 °F 76 °F 91 °F (2002)
Min Temperature 43 °F 55 °F 41 °F (2001)
Degree Days  
Heating Degree Days 9 2  
Month to date heating degree days 9 2  
Since 1 June heating degree days 9 2  
Since 1 July heating degree days 5516 6986  
Cooling Degree Days 0 3  
Month to date cooling degree days 0 3  
Year to date cooling degree days 136 53  
Since 1 June cooling degree days 0 3  
Growing Degree Days 4 (Base 50)    
Moisture  
Dew Point 45 °F    
Average Humidity 71    
Maximum Humidity 100    
Minimum Humidity 42    
Precipitation  
Precipitation 0.00 in 0.18 in 0.67 in (1999)
Month to date precipitation 0.00 0.18  
Year to date precipitation 7.19  
Sea Level Pressure  
Sea Level Pressure 29.91 in    
Wind  
Wind Speed 8 mph (WNW)    
Max Wind Speed 16 mph    
Max Gust Speed 21 mph    
Visibility 10 miles    
Events      
T = Trace of Precipitation, MM = Missing Value Source: NWS Daily Summary

Daily Weather History Graph

Daily Weather History Graph

Search for Another Location

Airport or City:

Trip Planner

Search our weather history database for the weather conditions in past years. The results will help you decide how hot, cold, wet, or windy it might be!

Date:

Astronomy

Jun. 01, 2012 Rise Set
Actual Time 5:38 AM CDT 8:41 PM CDT
Civil Twilight 5:04 AM CDT 9:15 PM CDT
Nautical Twilight 4:21 AM CDT 9:58 PM CDT
Astronomical Twilight 3:30 AM CDT 10:49 PM CDT
Moon 5:42 PM CDT (6/1) 3:16 AM CDT (6/1)
Length of Visible Light 16h 11m
Length of Day
15h 03m
Waxing Gibbous, 89% of the Moon is Illuminated
Jun 1
Waxing Gibbous
Jun 4
Full
Jun 11
Last Quarter
Jun 19
New
Jun 26
First Quarter

Hourly Weather History & Observations

Time (CDT) Temp. Windchill Dew Point Humidity Pressure Visibility Wind Dir Wind Speed Gust Speed Precip Events Conditions
1:53 AM 46.9 °F - 46.0 °F 97% 29.98 in 10.0 mi NW 4.6 mph - N/A   Overcast
2:53 AM 46.0 °F 43.9 °F 45.0 °F 96% 29.98 in 10.0 mi WNW 4.6 mph - N/A   Scattered Clouds
3:53 AM 45.0 °F 43.5 °F 43.0 °F 93% 29.96 in 10.0 mi NW 3.5 mph - N/A   Clear
4:53 AM 43.0 °F 39.5 °F 42.1 °F 97% 29.96 in 9.0 mi WNW 5.8 mph - N/A   Clear
5:53 AM 43.0 °F 39.5 °F 42.1 °F 97% 29.97 in 9.0 mi WNW 5.8 mph - N/A   Clear
6:53 AM 46.0 °F 44.8 °F 44.1 °F 93% 29.97 in 9.0 mi West 3.5 mph - N/A   Clear
7:53 AM 51.1 °F - 46.9 °F 86% 29.98 in 10.0 mi NW 8.1 mph - 0.01 in   Clear
8:53 AM 55.9 °F - 48.9 °F 77% 29.98 in 10.0 mi NW 9.2 mph - N/A   Clear
9:53 AM 60.1 °F - 46.9 °F 62% 29.98 in 10.0 mi WNW 10.4 mph - N/A   Clear
10:53 AM 63.0 °F - 42.1 °F 46% 29.96 in 10.0 mi NW 11.5 mph - N/A   Partly Cloudy
11:53 AM 63.0 °F - 41.0 °F 45% 29.94 in 10.0 mi WNW 8.1 mph - N/A   Scattered Clouds
12:53 PM 64.9 °F - 44.1 °F 47% 29.93 in 10.0 mi NW 10.4 mph - N/A   Scattered Clouds
1:53 PM 66.0 °F - 46.0 °F 48% 29.91 in 10.0 mi WNW 10.4 mph - N/A   Mostly Cloudy
2:53 PM 66.9 °F - 46.0 °F 47% 29.89 in 10.0 mi WNW 12.7 mph - N/A   Scattered Clouds
3:53 PM 66.9 °F - 45.0 °F 45% 29.87 in 10.0 mi WNW 10.4 mph - N/A   Scattered Clouds
4:53 PM 66.0 °F - 43.0 °F 43% 29.86 in 10.0 mi West 11.5 mph - N/A   Scattered Clouds
5:53 PM 66.0 °F - 43.0 °F 43% 29.85 in 10.0 mi WNW 9.2 mph - N/A   Partly Cloudy
6:53 PM 66.9 °F - 43.0 °F 42% 29.84 in 10.0 mi West 11.5 mph - N/A   Overcast
7:53 PM 61.0 °F - 46.9 °F 60% 29.84 in 10.0 mi WSW 5.8 mph - N/A   Scattered Clouds
8:53 PM 59.0 °F - 46.9 °F 64% 29.83 in 10.0 mi SW 5.8 mph - N/A   Mostly Cloudy
9:53 PM 55.9 °F - 46.9 °F 72% 29.84 in 10.0 mi SW 5.8 mph - N/A   Partly Cloudy
10:53 PM 57.9 °F - 46.0 °F 65% 29.83 in 10.0 mi SW 8.1 mph - N/A   Overcast
11:53 PM 59.0 °F - 46.0 °F 62% 29.83 in 10.0 mi WSW 12.7 mph - N/A   Overcast